Regional Weather Roundup
Issued by NWS

Home | Current Version | Previous Version | Text Only | Print | Product List | Glossary Off
Versions: 1 2 3 4 5 6 7 8 9 10 11 12 13 14 15 16 17 18 19 20 21 22 23 24 25 26 27 28 29 30 31 32 33 34 35 36 37 38 39 40 41 42 43 44 45 46 47 48 49 50

000
ASUS43 KBIS 191620
RWRND

NORTH DAKOTA REGIONAL WEATHER ROUNDUP
NATIONAL WEATHER SERVICE BISMARCK ND
1100 AM CDT SAT APR 19 2014

NOTE: "FAIR" INDICATES FEW OR NO CLOUDS BELOW 12,000 FEET WITH NO
SIGNIFICANT WEATHER AND/OR OBSTRUCTIONS TO VISIBILITY.


NDZ001>003-009>011-017-191700-
NORTHWEST NORTH DAKOTA

CITY           SKY/WX    TMP DP  RH WIND       PRES   REMARKS
WILLISTON      CLOUDY    44  36  73 W14       29.88R
MINOT          PTSUNNY   47  36  65 W23G39    29.81R
MINOT AFB      CLOUDY    47  40  78 W28G35    29.78R
$$

NDZ018>021-031>035-040>046-191700-
SOUTHWEST NORTH DAKOTA

CITY           SKY/WX    TMP DP  RH WIND       PRES   REMARKS
BISMARCK       SUNNY     55  29  36 W25G35    29.91R
DICKINSON      SUNNY     51  30  44 W31G38    29.89R
GARRISON         N/A     47  36  65 W22G35    29.85R
HETTINGER ARPT SUNNY     53  26  35 W22G30    29.97R
$$

NDZ004>008-012>016-024-026-027-054-191700-
NORTHEAST NORTH DAKOTA

CITY           SKY/WX    TMP DP  RH WIND       PRES   REMARKS
GRAND FORKS    MOSUNNY   55  39  54 SW16      29.79S
GRND FRKS AFB  SUNNY     58  36  43 W14G20    29.79S
DEVILS LAKE    SUNNY     52  34  50 W24G31    29.79R
$$

NDZ022-023-025-028>030-036>039-047>053-191700-
SOUTHEAST NORTH DAKOTA

CITY           SKY/WX    TMP DP  RH WIND       PRES   REMARKS
FARGO          MOSUNNY   59  38  45 W13       29.87R
JAMESTOWN      SUNNY     56  29  35 W17G28    29.86R
$$




USA.gov is the U.S. government's official web portal to all federal, state and local government web resources and services.